Location: Mühlbach
(49.1003°N, 8.9026°E)
Time: 13:50:02
(UTC+00:00)

Daily predictions for brighter satellites

Satellite Brightness Start Highest point End
(mag) Time Altitude Azimuth Time Altitude Azimuth Time Altitude Azimuth
Cosmos 2082 Rocket 2.5 19:26:50 10° S 19:32:14 45° ESE 19:37:38 10° NE
Cosmos 2369 3.9 19:28:18 10° NNW 19:33:59 63° ENE 19:39:39 10° SE
PAYLOAD B 4.4 19:32:33 10° SSE 19:38:04 84° WSW 19:43:40 10° NNW
Cosmos 909 Rocket 4.5 19:32:20 10° S 19:38:10 40° ESE 19:44:05 10° NE
Cosmos 2228 3.4 19:35:10 10° SSE 19:39:00 39° E 19:42:50 10° NNE
GEOS 3 Rocket 4.4 19:34:25 10° SSE 19:39:34 51° SW 19:44:50 10° NW
Okean-O 3.2 19:35:54 10° SE 19:40:02 43° ENE 19:44:12 10° N
Cosmos 1331 Rocket 4.4 19:36:01 10° SSW 19:41:14 70° WNW 19:46:27 10° NNE
USA 186 2.6 19:39:12 10° SE 19:41:33 26° ENE 19:43:56 10° N
USA 305 3.4 19:38:15 10° WNW 19:42:07 42° SW 19:45:41 10° SSE
Cosmos 1452 Rocket 3.5 19:38:28 10° SSW 19:43:41 90° ESE 19:48:58 10° NNE
NOSS 3-3 (A) 4.0 19:39:23 10° S 19:44:12 43° ESE 19:49:53 10° NE
Cosmos 1697 Rocket 4.4 19:39:37 10° NW 19:44:28 31° WSW 19:49:18 10° SSW
Cosmos 1725 Rocket 4.0 19:38:15 10° S 19:44:28 72° E 19:50:41 10° NNE
ISS -3.7 19:44:39 10° WSW 19:48:00 84° NNW 19:51:21 10° ENE
Meteor 1-27 4.2 19:44:31 10° S 19:50:08 74° E 19:55:44 10° NNE
Tsikada Rocket 4.1 19:44:47 10° N 19:50:56 63° ENE 19:57:01 10° SSE
ADEOS 3.6 19:45:45 10° SSE 19:50:58 86° WSW 19:56:14 10° NNW
Cosmos 1758 Rocket 4.5 19:47:36 10° N 19:51:36 33° ENE 19:55:25 11° SE
Cosmos 1302 Rocket 3.9 19:48:57 10° SSW 19:54:05 70° ESE 19:59:16 10° NNE
USA 306 2.1 19:50:48 10° WSW 19:54:09 69° NNW 19:56:30 10° ENE
Cosmos 2084 Rocket 3.5 19:50:25 10° NW 19:54:36 73° SW 19:58:40 11° SSE
CZ-4B R/B 3.9 19:54:43 11° ESE 19:57:19 25° ENE 20:00:11 10° N
SL-16 R/B 2.8 19:52:46 10° NNW 19:58:14 44° NE 20:03:19 12° SE
Cosmos 2016 Rocket 4.0 19:53:34 10° S 19:59:50 84° E 20:06:03 10° N
Cosmos 724 4.5 19:54:02 10° SW 20:00:04 83° NW 20:06:02 10° NE
CZ-4C R/B 2.6 19:56:08 10° WSW 20:00:23 56° NW 20:05:54 10° NE
SKYMED 3 4.3 19:58:54 10° NNE 20:02:52 88° WNW 20:06:50 10° SSW
SL-08 R/B 3.3 19:58:14 10° NNE 20:03:05 75° ESE 20:07:48 10° S
DELTA 2 R/B (1) 4.4 20:04:56 10° SW 20:09:45 30° S 20:13:54 13° ESE
COSMOS 2406 3.6 20:04:48 10° S 20:10:11 43° ESE 20:15:36 10° NE
Helios 1A Rocket 3.6 20:08:25 10° N 20:11:26 41° WNW 20:14:24 10° SW
Terra 2.8 20:08:04 10° S 20:12:34 46° W 20:17:06 10° NNW
Cosmos 1743 3.7 20:10:47 10° NNW 20:13:32 32° W 20:16:16 10° SSW
Cosmos 1980 Rocket 3.4 20:09:48 10° NW 20:15:03 39° WSW 20:20:15 10° S
NOSS 3-3 (C) 3.7 20:10:12 10° SSW 20:15:18 59° ESE 20:21:23 10° NE
Meteor 1-20 Rocket 4.5 20:10:21 10° N 20:15:50 55° ENE 20:20:32 15° SSE
CZ-4 R/B 3.6 20:13:11 10° SW 20:15:52 19° W 20:18:34 10° NW
YAOGAN 11 4.1 20:11:32 10° NNE 20:15:57 66° ESE 20:20:23 10° S
Cosmos 1602 Rocket 4.5 20:12:09 10° N 20:16:04 33° ENE 20:18:56 16° SE
USA 245 4.4 20:13:36 13° SSE 20:18:55 64° ENE 20:24:27 10° N
Cosmos 1933 3.9 20:19:18 17° SSE 20:21:45 34° E 20:25:13 10° NNE
Cosmos 2333 Rocket 2.5 20:18:00 10° NNW 20:23:39 59° ENE 20:28:05 17° SE
NOSS 3-4 (A) 4.1 20:21:46 10° NW 20:28:13 59° NE 20:34:50 14° ESE
NOSS 3-4 (C) 4.1 20:22:23 10° NW 20:28:51 59° NE 20:35:28 14° ESE
Cosmos 2061 Rocket 4.0 20:24:01 10° S 20:30:15 90° ESE 20:36:35 10° N
Cosmos 1782 3.9 20:28:18 10° SW 20:31:38 39° WNW 20:34:58 10° N
Cosmos 1626 Rocket 3.5 20:28:26 10° N 20:32:49 89° ENE 20:36:17 16° S
Cosmos 1805 4.0 20:31:00 10° N 20:33:54 28° ENE 20:35:11 21° ESE
SPOT 3 Rocket 3.5 20:33:28 17° SSE 20:37:33 80° ENE 20:42:42 10° NNW
Cosmos 2098 Rocket 3.9 20:35:17 19° SE 20:38:02 35° E 20:41:57 10° NNE
Ariane Rocket 3.1 20:37:06 19° SSE 20:40:45 68° ENE 20:45:48 10° N
Cosmos 2360 Rocket 2.7 20:35:53 10° NNW 20:41:26 49° NE 20:45:21 19° ESE
Cosmos 220 Rocket 4.3 20:39:50 20° SSE 20:42:11 40° ESE 20:46:01 10° NE
Spot 2 Rocket 4.4 20:41:36 10° S 20:46:23 44° W 20:51:13 10° NNW
Meteor 1-25 Rocket 4.2 20:42:18 10° N 20:47:59 73° ENE 20:51:51 21° SSE
Cosmos 1606 Rocket 4.3 20:49:17 24° SE 20:51:03 34° E 20:54:58 10° NNE
Okean 1 4.2 20:52:40 24° ESE 20:53:18 25° E 20:56:17 10° NE
Helios 1B rocket 4.3 20:52:03 11° E 20:53:25 13° ENE 20:55:07 10° NNE
Cosmos 2151 3.0 20:50:31 10° NNW 20:54:39 74° W 20:57:14 22° S
Cosmos 2219 Rocket 3.0 20:50:07 10° NNW 20:55:29 41° NE 20:59:14 18° ESE
Okean O Rocket 3.0 20:52:55 10° SSW 20:56:47 33° W 21:00:41 10° NNW
Cosmos 1763 Rocket 4.5 20:55:35 23° SE 20:57:26 29° E 21:01:55 10° NE
Cosmos 1726 Rocket 4.4 20:59:17 26° ESE 21:00:21 29° E 21:03:52 10° NNE
Cosmos 1461 2.4 20:58:30 10° SW 21:02:12 83° SE 21:05:54 10° NE
CZ-2C R/B 1.7 21:01:38 49° SSE 21:02:15 82° ENE 21:05:03 10° NNW
Okean 1-7 Rocket 3.6 21:04:19 10° N 21:08:47 68° ENE 21:10:53 31° SSE
Cosmos 2034 Rocket 4.4 21:07:11 24° SSE 21:10:40 46° E 21:16:41 10° NNE
CZ-4B R/B 3.6 21:07:48 22° S 21:10:49 64° WSW 21:15:38 10° NNW
USA 186 4.1 21:09:27 10° SW 21:10:58 14° W 21:12:30 10° WNW
BREEZE-M DEB (TANK) 4.0 20:57:34 10° WSW 21:11:05 75° S 21:16:07 10° E
Cosmos 2322 Rocket 2.2 21:06:53 10° NNW 21:12:35 83° ENE 21:15:45 28° SSE
Cosmos 1437 Rocket 3.1 21:09:58 16° SSW 21:12:36 55° WNW 21:16:08 10° N
Cosmos 1544 Rocket 4.3 21:08:31 10° SSW 21:12:45 51° WNW 21:16:59 10° N
Cosmos 2082 Rocket 3.8 21:11:08 10° WSW 21:16:24 37° NW 21:21:42 10° NNE
Cosmos 1777 Rocket 3.9 21:11:13 10° NNW 21:16:29 87° ENE 21:19:08 30° SSE
USA 306 3.7 21:19:14 10° WNW 21:21:12 19° NNW 21:21:47 17° N
Cosmos 1503 Rocket 3.9 21:18:20 10° NNW 21:23:34 78° ENE 21:25:58 32° SSE
ISS -3.0 21:21:43 10° WNW 21:25:00 53° N 21:27:25 17° ENE
Nadezhda 4 Rocket 3.9 21:22:44 10° N 21:28:54 86° W 21:32:26 27° S
Cosmos 44 4.2 21:24:25 10° NNW 21:29:40 47° NE 21:32:53 22° ESE
Cosmos 2237 Rocket 4.5 21:26:09 10° N 21:29:53 17° NE 21:33:34 10° ENE
Cosmos-2242 3.7 21:30:18 33° ESE 21:30:55 35° E 21:34:41 10° NNE
CZ-4B R/B 4.3 21:29:24 17° SW 21:31:02 24° W 21:33:53 10° NW
Meteor 2-10 4.3 21:26:49 10° NNW 21:32:35 78° W 21:35:38 29° S
USA 290 2.0 21:33:39 69° ESE 21:33:40 69° ESE 21:36:49 10° NNE
Cosmos 1486 Rocket 4.3 21:29:35 10° NNW 21:34:46 60° WSW 21:37:16 30° S
Cosmos 1707 3.6 21:36:03 24° ENE 21:36:03 24° ENE 21:37:45 10° NNE
Cosmos 1354 Rocket 4.0 21:31:56 10° NNW 21:37:12 72° ENE 21:39:24 35° SE
Cosmos 2278 4.3 21:31:50 10° NW 21:37:21 50° WSW 21:40:11 27° S
COSMOS 2428 4.0 21:34:02 10° NNW 21:39:12 33° NE 21:42:51 17° ESE
SL-16 R/B 3.2 21:37:04 10° NW 21:42:13 36° WSW 21:45:09 22° SSW
Cosmos 1825 Rocket 3.7 21:38:50 10° NNW 21:43:09 65° W 21:44:45 37° SSW
Cosmos 2195 Rocket 4.4 21:40:51 10° N 21:47:08 89° E 21:50:09 33° S
Cosmos 1953 Rocket 3.4 21:44:09 10° N 21:48:32 84° E 21:49:43 48° SSE
Cosmos 2026 Rocket 4.0 21:45:27 10° N 21:51:52 83° E 21:54:55 34° SSE
Cosmos 1271 Rocket 4.3 21:52:42 19° ENE 21:52:42 19° ENE 21:54:39 10° NE
Cosmos 2221 4.1 21:54:54 20° E 21:55:04 20° E 21:58:10 10° NE
Aureole 1 Rocket 4.0 21:52:08 10° NNW 21:57:47 71° ENE 22:00:52 33° SE
Cosmos 2058 Rocket 3.1 21:57:50 49° SE 21:58:38 59° E 22:02:54 10° NNE
Cosmos 540 Rocket 3.3 21:58:20 35° SSW 22:00:33 82° ESE 22:05:44 10° NNE
Cosmos 1766 2.7 21:58:56 10° N 22:02:02 79° NE 22:02:02 79° NE
Cosmos 1842 4.1 22:05:49 29° ENE 22:05:49 29° ENE 22:07:58 10° NNE
Cosmos 2333 Rocket 3.7 22:02:54 10° NW 22:07:34 27° WSW 22:10:06 19° SW
Spot 4 4.3 22:07:43 36° ESE 22:09:11 49° ENE 22:13:48 10° N
Geosat 4.0 22:06:56 10° NNE 22:11:58 82° WNW 22:14:39 28° SW
Cosmos 468 Rocket 4.1 22:10:45 44° SSE 22:12:09 60° ESE 22:17:20 10° NNE
ARIANE 5 R/B 3.1 22:11:52 41° ESE 22:12:56 51° ENE 22:17:16 10° N
ALOS 2 3.3 22:13:10 36° ESE 22:14:14 44° ENE 22:18:25 10° N
Cosmos 1833 4.2 22:11:32 25° SW 22:15:00 80° WNW 22:20:40 10° NNE
Cosmos 2297 Rocket 3.7 22:17:12 19° ESE 22:17:34 19° E 22:21:24 10° ENE
Cosmos 1076 Rocket 4.5 22:14:07 10° NNW 22:18:04 38° W 22:19:11 32° SW
NOSS 3-4 (A) 4.4 22:12:41 10° NW 22:19:07 43° WSW 22:22:14 30° SSW
NOSS 3-4 (C) 4.4 22:13:18 10° NW 22:19:46 44° WSW 22:22:53 30° SSW
Meteor 2-6 Rocket 4.4 22:18:01 40° SSE 22:20:04 64° E 22:25:58 10° NNE
Cosmos 1536 2.5 22:17:35 10° NNW 22:21:16 76° W 22:21:26 74° SW
Cosmos 2322 3.8 22:19:21 10° NNW 22:25:04 69° ENE 22:27:17 38° SE
Cosmos 2360 Rocket 3.3 22:20:13 10° NW 22:25:12 32° WSW 22:27:05 26° SW
Helios 1A 3.4 22:22:03 10° N 22:25:52 52° WNW 22:26:53 40° WSW
Helios 1B rocket 2.2 22:25:59 58° W 22:25:59 58° W 22:29:26 10° NNW
CSL-04 DEB 4.1 22:27:09 68° WSW 22:27:10 68° WSW 22:30:48 10° NNW
USA 234 3.6 22:24:26 10° ENE 22:30:38 43° SE 22:32:06 38° SSE
PSLV R/B 4.1 22:30:24 10° NNE 22:34:30 43° E 22:34:43 43° ESE
Cosmos 1092 Rocket 4.3 22:31:44 10° NNW 22:37:44 56° W 22:40:16 34° SSW
Cosmos 1898 Rocket 3.4 22:33:06 10° NNW 22:38:18 80° ENE 22:39:45 49° SE
SeaSat 1 4.3 22:34:43 11° E 22:38:31 25° NE 22:42:30 10° N
Cosmos 1763 Rocket 4.3 22:35:25 19° SW 22:38:54 47° WNW 22:44:01 10° NNE
Cosmos 2219 Rocket 3.0 22:34:11 10° NW 22:39:24 39° WSW 22:40:55 33° SW
Cosmos 1470 2.6 22:37:25 10° N 22:40:17 64° N 22:40:17 64° N
RESURS DK-1 2.1 22:40:12 10° NNW 22:44:12 78° ENE 22:44:26 74° ESE
TSX-5 4.2 22:46:39 10° NW 22:48:57 43° WNW 22:48:57 43° WNW
Cosmos 1975 2.5 22:48:03 10° N 22:51:35 82° NNW 22:51:35 82° NNW
MetOp-A 4.2 22:53:43 43° SE 22:55:00 58° ENE 22:59:39 10° N
Cosmos 2322 Rocket 4.0 22:52:14 10° WNW 22:55:53 18° W 22:57:32 16° WSW
NOSS 0 Rocket 3.9 22:51:30 10° NNW 22:57:43 83° ENE 23:00:06 40° SE
Lacrosse 4 Rocket 3.4 23:01:08 16° E 23:01:08 16° E 23:02:48 10° ENE
SAR-Lupe-2 3.8 23:02:14 59° NNW 23:02:14 59° NNW 23:05:03 10° NNW
SL-16 R/B 4.3 22:57:20 10° N 23:01:45 22° NE 23:06:09 10° E
ISS -2.2 22:58:36 10° WNW 23:00:22 29° WNW 23:00:22 29° WNW
Meteor 2-9 Rocket 4.3 23:03:45 10° NNW 23:09:05 63° W 23:10:27 47° SSW
Cosmos 841 Rocket 3.4 23:09:01 52° SSW 23:10:20 90° ENE 23:15:37 10° NNE
Cosmos 44 4.1 23:05:48 10° NW 23:10:44 38° WSW 23:11:09 37° SW
CZ-2C R/B 4.3 23:06:42 10° N 23:11:00 49° WNW 23:12:13 38° WSW
Cosmos 1812 Rocket 3.4 23:10:37 71° S 23:11:06 90° NE 23:15:33 10° N
Intercosmos 24 3.9 23:10:18 10° N 23:14:13 58° ENE 23:14:16 58° E
Cosmos 2237 Rocket 2.4 23:09:23 10° NNW 23:15:04 66° ENE 23:17:27 35° SE
Cosmos 2279 Rocket 4.4 23:14:26 33° SW 23:17:06 57° WNW 23:23:17 10° N
Cosmos 1980 3.8 23:13:27 10° NNW 23:19:08 75° ENE 23:21:17 39° SE
Meteor 1-11 Rocket 3.6 23:14:10 10° NNW 23:19:51 78° W 23:21:21 50° S
CZ-2C R/B 2.7 23:18:46 45° SE 23:20:22 71° ENE 23:25:34 10° N
COSMOS 2428 3.0 23:18:10 10° NW 23:23:41 52° WSW 23:24:48 45° SSW
Meteor 2-4 Rocket 4.1 23:23:24 41° SE 23:24:44 50° E 23:30:03 10° NNE
Meteor 1-10 Rocket 4.3 23:23:16 46° SSW 23:25:10 83° WNW 23:31:10 10° N
Cosmos 1271 Rocket 4.0 23:26:03 27° WNW 23:26:07 27° WNW 23:29:04 10° N
ACS3 Solar Sail 2.9 23:21:06 10° NNE 23:26:21 31° E 23:28:30 25° SE
Cosmos 2227 Rocket 3.3 23:26:17 26° ESE 23:27:19 28° ESE 23:32:03 10° NE
Meteor 2-20 4.4 23:29:37 45° S 23:31:39 90° W 23:37:47 10° N
Cosmos 2221 3.2 23:31:11 38° W 23:31:48 41° WNW 23:35:47 10° N
Cosmos 1238 Rocket 2.8 23:37:43 69° ESE 23:37:49 70° E 23:42:05 10° NNE
GP-B 3.2 23:33:52 10° N 23:38:10 60° W 23:38:41 55° WSW
BREEZE-M DEB (TANK) 4.2 23:21:59 10° SW 23:38:49 51° SSE 23:43:47 10° E
Cosmos 1842 Rocket 4.3 23:38:31 39° ESE 23:39:05 41° E 23:43:13 10° NNE
Cosmos 2263 Rocket 3.7 23:37:50 20° ESE 23:39:05 22° ESE 23:43:16 10° NE
Meteor 1-27 Rocket 3.7 23:39:18 47° S 23:41:05 88° ESE 23:46:53 10° NNE
Cosmos 2266 Rocket 4.3 23:40:05 10° NNW 23:45:55 53° W 23:47:46 39° SW
Cosmos 1937 Rocket 4.1 23:43:32 10° NW 23:48:14 37° WSW 23:48:46 36° WSW
ARIANE 5 R/B 4.4 23:49:14 20° W 23:49:32 20° W 23:52:48 10° NW
ALOS 2 4.2 23:50:33 22° W 23:50:46 23° W 23:54:15 10° NW
Sich 1 3.7 23:47:46 10° N 23:51:47 45° ENE 23:52:43 38° ESE
Iridium 4 Rocket 3.9 23:51:28 41° SSE 23:53:23 66° E 23:59:09 10° N
Landsat 5 3.2 23:50:31 10° NNE 23:54:37 76° ESE 23:54:53 72° SE
